Aérodrome :
LOGIN :

S'inscrire | Disclaimer

   EN    FR    IT 

 










Légende :    VFR   VFR Marginal   IFR   IFR Intensif   IFR Très Intensif
Visi : 
Plafond : 
>= 8 km
>= 3000ft
5 à 8 km
1000 à 3000 ft
1500m à 5 km
500 à 1000 ft
800 à 1500m
200 à 500 ft
< 800m
< 200 ft
Symboles :   Orages  Brouillard  Fortes neiges  Fortes précipitations  Vent > 20 kt
SIGMETs :   Divers  Orages  Givrage  Turbulence  Onde Orograph.  Cendres Volcan.







- Altitude de l'aérodrome : 1017 ft
- Voir les cartes d'approche


LFSL - Brive Souillac

DERNIER METAR :
  • 241230Z AUTO 05008KT 020V090 CAVOK 26/09 Q1019 NOSIG

METARs EXPIRÉS :
  • 241200Z AUTO 35008KT 320V040 CAVOK 25/10 Q1019 NOSIG
  • 241130Z AUTO 36005KT 290V080 CAVOK 25/10 Q1019 NOSIG
  • 241100Z AUTO 02006KT 320V130 CAVOK 24/11 Q1019 NOSIG
  • 241030Z AUTO 03006KT 330V100 CAVOK 24/11 Q1019 NOSIG
  • 241000Z AUTO 05007KT 350V100 CAVOK 23/10 Q1019 NOSIG

TAF TAF LFSL
Valide du 24 à 12h jusqu'au 24 à 21h UTC


241100Z 2412/2421 03008KT CAVOK
Pas de NOTAMs connus pour ce terrain.



MET'MAP, la Météo Aéronautique d'un coup d'oeil ! - Copyright ORBIFLY Décembre 2007 - Disclaimer

ORBIFLY MET'MAP TEAM :

Programmation & Développement : Alexandra Zaïnal
Conception & Développement : Baudouin d'Aumeries
Co-Programmation & Développement : Marc-Olivier Méhu
Soutien technique & logistique : Manuel Goepfert

Contact : metmap@orbifly.com




SOURCES & CREDITS :

   NOAA